Lexington Weather

Lexington, Massachusetts, USA

74°F
8/7/2020 11:43am 
  • Lexington Conditions: Clear
  • Temperature: 73.6°F / 23.1°CWarmer 2.5°F than last hour.
  • Dew Point: 63.7°FIncreased 0.2°Fsince last hour.
  • Relative Humidity: 71%Decreased 6.0% since last hour.
  • Wind: Calm, 10-min avg: Calm, gust: 2 mph
  • Barometer: 30.13 inFalling 0.02  inHg/hr Falling Slowly
  • Visibility: 10 miles
  • Rain Today: 0.00 in
  •   

Regional Weather Roundup
for Boston / Norton, MA

        
000
ASUS41 KBOX 070104
RWRBOX

REGIONAL WEATHER ROUNDUP
NATIONAL WEATHER SERVICE BOSTON/NORTON MA
900 PM EDT THU AUG 06 2020

NOTE:  "FAIR" INDICATES FEW OR NO CLOUDS BELOW 12,000 FEET WITH NO 
SIGNIFICANT WEATHER AND/OR OBSTRUCTIONS TO VISIBILITY.

MAZALL-070200-
EASTERN MASSACHUSETTS
  
CITY           SKY/WX    TMP DP  RH WIND       PRES   REMARKS
BOSTON         MOCLDY    76  57  51 S8        30.10R                  
BEVERLY        CLEAR     68  58  70 CALM      30.10R                  
LAWRENCE       CLEAR     73  56  54 E3        30.12R                  
BEDFORD        CLEAR     69  60  73 CALM      30.09R                  
BLUE HILL        N/A     73  56  54 S5        30.12R                  
NORWOOD        CLEAR     72  58  61 CALM      30.10R                  
MARSHFIELD     CLEAR     73  57  56 CALM      30.10R                  
PLYMOUTH       PTCLDY    73  54  51 CALM      30.12R                  
TAUNTON        CLEAR     66  59  78 CALM      30.11R                  
NEW BEDFORD    CLEAR     69  58  67 CALM      30.11R                  
$$

MAZALL-070200-
CAPE COD AND THE ISLANDS
  
CITY           SKY/WX    TMP DP  RH WIND       PRES   REMARKS
FALMOUTH       CLEAR     72  54  53 SW5       30.11R                  
HYANNIS        MOCLDY    75  58  55 S3        30.11R                  
CHATHAM        MOCLDY    70  53  54 CALM      30.13R                  
PROVINCETOWN   PTCLDY    73  59  61 S6        30.12R                  
NANTUCKET      CLOUDY    69  66  90 CALM      30.12R                  
MARTHAS VNYRD  PTCLDY    70  65  84 W3        30.12R                  
$$
 
MAZALL-070200-
CENTRAL AND WESTERN MASSACHUSETTS
  
CITY           SKY/WX    TMP DP  RH WIND       PRES   REMARKS
WORCESTER      CLEAR     70  57  63 NW5       30.14R                  
FITCHBURG      CLEAR     69  59  70 CALM      30.12R                  
ORANGE         CLEAR     68  60  75 CALM      30.14R                  
SPRINGFIELD    PTCLDY    69  65  86 NE5       30.10R                  
WESTFIELD      CLEAR     73  63  70 N5        30.10R                  
NORTH ADAMS    CLEAR     61  57  87 CALM      30.14R                  
PITTSFIELD     PTCLDY    65  59  81 CALM      30.14R                  
$$
 
RIZALL-070200-
RHODE ISLAND
  
CITY           SKY/WX    TMP DP  RH WIND       PRES   REMARKS
PROVIDENCE     PTCLDY    72  59  63 S5        30.11R                  
NEWPORT        CLEAR     69  62  78 CALM      30.12R                  
BLOCK ISLAND   PTCLDY    68  64  87 NW3       30.13R                  
SMITHFIELD     CLEAR     70  59  68 CALM      30.13R                  
WESTERLY       CLEAR     70  62  76 CALM      30.12R                  
$$
 
CTZALL-070200-
CONNECTICUT
  
CITY           SKY/WX    TMP DP  RH WIND       PRES   REMARKS
BRADLEY INTL   PTCLDY    76  61  59 S7        30.09S                  
HARTFORD       CLEAR     73  63  70 S5        30.10R                  
BRIDGEPORT     NOT AVBL                                               
DANBURY        CLEAR     69  64  84 CALM      30.13R                  
GROTON         MOCLDY    70  65  84 CALM      30.10S                  
NEW HAVEN      CLEAR     73  67  81 CALM      30.11R                  
CHESTER        NOT AVBL                                               
MERIDEN        NOT AVBL                                               
WILLIMANTIC    CLEAR     73  61  65 S3        30.12R                  
OXFORD         CLEAR     68  63  84 CALM      30.14R                  
$$

MEZ002-015-021-024-NHZ003-005-008-011-012-014-VTZ005-008-070200-
NORTHERN NEW ENGLAND
  
CITY           SKY/WX    TMP DP  RH WIND       PRES   REMARKS
PORTLAND ME    CLEAR     73  53  49 W5        30.10R                  
BANGOR ME      PTCLDY    70  53  54 W6        30.08R                  
CONCORD NH     CLEAR     64  54  69 CALM      30.12R                  
MANCHESTER NH  PTCLDY    77  52  41 CALM      30.09R                  
NASHUA NH      CLEAR     71  58  63 CALM      30.11R                  
PORTSMOUTH NH  PTCLDY    69  52  54 CALM      30.09R                  
JAFFREY NH     CLEAR     62  57  83 CALM      30.15R                  
KEENE NH       CLEAR     62  58  86 CALM      30.13R                  
BURLINGTON VT  PTCLDY    71  56  58 NE3       30.12R                  
MT. WASHINGTON FOG       45  45 100 NW18        N/A  VSB 1/8          
$$

NYZ052-076-070200-
EASTERN NEW YORK
  
CITY           SKY/WX    TMP DP  RH WIND       PRES   REMARKS
ALBANY         PTCLDY    65  56  72 NW5       30.12R                  
NEW YORK CITY  MOCLDY    78  54  43 S5        30.11R                  
$$
 
ANZALL-070200-
MARINE OBSERVATIONS
  
STATION/POSITION TIME  TEMP    WIND        PRES    VSBY  WAVE
                       AIR SEA DIR/SP/G                  HT/PER
                 (UTC) (F)     (DEG/KT/KT) (MB)    (MI)  (FT/S)
BOSTON BUOY      0050   67 64  160/  8/ 10 1018.2R         1/10
BUZZARDS BAY     0000          250/  5/  5 1020.3R
NANTUCKET SOUND  0050      77  200/  4/  6   N/A           1
MASS BAY-STELLWA 0004   68     200/  8/ 10 1016.7R  1 7/8  1/ 2
ISLE OF SHOALS   0000   71     170/  8/  8 1018.4R
S OF BLOCK IS    0026      72                N/A           3/ 7
$$

......................KEY.........................
  SKY/WX - SKY CONDITION/PRESENT WEATHER
  TMP    - TEMPERATURE IN FAHRENHEIT
  DWPT   - DEWPOINT IN FAHRENHEIT
  RH     - RELATIVE HUMIDITY IN PERCENT
  WIND   - DIRECTION AND SPEED IN MPH
  PRES   - MEAN SEA LEVEL PRESSURE IN INCHES OF HG
  WCI    - WIND CHILL INDEX
  VSB    - VISIBILITY IN MILES
  HX     - HEAT INDEX
  TC     - TEMPERATURE IN CELSIUS
  VRB    - VARIABLE WIND DIRECTION
  N/A    - NOT AVAILABLE
  
      

Other recent Regional Weather Roundups

Fri Aug 7, 11:04am

Fri Aug 7, 10:04am

Fri Aug 7, 9:04am

Fri Aug 7, 8:04am

Fri Aug 7, 7:04am

Fri Aug 7, 6:04am

Fri Aug 7, 5:04am

Fri Aug 7, 4:04am

Fri Aug 7, 3:04am

Fri Aug 7, 2:04am

Fri Aug 7, 1:05am

Fri Aug 7, 12:04am

Thu Aug 6, 11:04pm

Thu Aug 6, 10:04pm

Thu Aug 6, 8:04pm

Thu Aug 6, 7:04pm

Thu Aug 6, 6:04pm

Thu Aug 6, 5:04pm

Thu Aug 6, 4:05pm

Thu Aug 6, 3:04pm

Thu Aug 6, 2:05pm

Thu Aug 6, 1:04pm

Thu Aug 6, 12:04pm

Thu Aug 6, 11:04am

Thu Aug 6, 10:04am

Thu Aug 6, 9:04am

Thu Aug 6, 8:04am

Thu Aug 6, 7:04am

Thu Aug 6, 6:04am

Thu Aug 6, 5:04am

Thu Aug 6, 4:04am

Thu Aug 6, 3:04am

Thu Aug 6, 2:05am

Thu Aug 6, 1:04am

Thu Aug 6, 12:04am

Wed Aug 5, 11:04pm

Wed Aug 5, 10:04pm

Wed Aug 5, 9:04pm

Wed Aug 5, 8:05pm

Wed Aug 5, 7:04pm

Wed Aug 5, 6:04pm

Wed Aug 5, 5:04pm

Wed Aug 5, 4:05pm

Wed Aug 5, 3:04pm

Wed Aug 5, 2:04pm

Wed Aug 5, 1:04pm

Wed Aug 5, 12:04pm

Wed Aug 5, 11:04am

Wed Aug 5, 10:04am

Wed Aug 5, 9:04am

Wed Aug 5, 8:04am

Wed Aug 5, 7:04am

Wed Aug 5, 6:04am

Wed Aug 5, 5:04am

Wed Aug 5, 4:04am

Wed Aug 5, 3:04am

Wed Aug 5, 2:05am

Wed Aug 5, 1:04am

Wed Aug 5, 12:05am

Tue Aug 4, 11:05pm

Tue Aug 4, 10:05pm

Tue Aug 4, 9:04pm

Tue Aug 4, 8:04pm

Tue Aug 4, 7:05pm

Tue Aug 4, 6:05pm

Tue Aug 4, 5:05pm

Tue Aug 4, 4:05pm

Tue Aug 4, 3:04pm

Tue Aug 4, 2:05pm

Tue Aug 4, 1:04pm

Tue Aug 4, 12:05pm

Tue Aug 4, 11:04am

Tue Aug 4, 10:04am

Tue Aug 4, 9:04am

Tue Aug 4, 8:04am

Tue Aug 4, 7:04am

Tue Aug 4, 6:04am

Tue Aug 4, 5:04am

Tue Aug 4, 4:04am

Tue Aug 4, 3:04am

Tue Aug 4, 2:04am

Tue Aug 4, 1:04am

Tue Aug 4, 12:04am

Mon Aug 3, 11:04pm

Mon Aug 3, 10:04pm

Mon Aug 3, 9:04pm

Mon Aug 3, 8:05pm

Mon Aug 3, 7:04pm

Mon Aug 3, 6:04pm

Mon Aug 3, 5:04pm

Mon Aug 3, 4:05pm

Mon Aug 3, 3:04pm

Mon Aug 3, 2:04pm

Mon Aug 3, 1:04pm

Mon Aug 3, 12:05pm

Mon Aug 3, 11:04am

Mon Aug 3, 10:04am

Mon Aug 3, 9:05am

Mon Aug 3, 8:04am

Mon Aug 3, 7:04am

Mon Aug 3, 6:04am

Mon Aug 3, 5:04am

Mon Aug 3, 4:04am

Mon Aug 3, 3:04am

Mon Aug 3, 2:04am

Mon Aug 3, 1:04am

Mon Aug 3, 12:05am

Sun Aug 2, 11:04pm

Sun Aug 2, 10:04pm

Sun Aug 2, 9:04pm

Sun Aug 2, 8:04pm

Sun Aug 2, 7:04pm

Sun Aug 2, 6:04pm

Sun Aug 2, 5:04pm

Sun Aug 2, 4:05pm

Sun Aug 2, 3:04pm

Sun Aug 2, 2:05pm

Sun Aug 2, 1:04pm

Sun Aug 2, 12:04pm

Sun Aug 2, 11:04am

Sun Aug 2, 10:04am

Sun Aug 2, 9:05am

Sun Aug 2, 8:05am

Sun Aug 2, 7:04am

Sun Aug 2, 6:04am

Sun Aug 2, 5:04am

Sun Aug 2, 4:05am

Sun Aug 2, 3:04am

Sun Aug 2, 2:04am

Sun Aug 2, 1:04am

Sun Aug 2, 12:05am

Sat Aug 1, 11:04pm

Sat Aug 1, 10:04pm

Sat Aug 1, 9:04pm

Sat Aug 1, 8:05pm

Sat Aug 1, 7:04pm

Sat Aug 1, 6:04pm

Sat Aug 1, 5:05pm

Sat Aug 1, 4:05pm

Sat Aug 1, 3:04pm

Sat Aug 1, 2:04pm

Sat Aug 1, 1:04pm

Sat Aug 1, 12:04pm

Sat Aug 1, 11:05am

Sat Aug 1, 10:05am

Sat Aug 1, 9:04am

Sat Aug 1, 8:04am

Sat Aug 1, 7:04am

Sat Aug 1, 6:04am

Sat Aug 1, 5:04am

Sat Aug 1, 4:05am

Sat Aug 1, 3:04am

Sat Aug 1, 2:04am

Sat Aug 1, 1:04am

Sat Aug 1, 12:05am

Fri Jul 31, 11:05pm

Fri Jul 31, 10:04pm

Fri Jul 31, 9:04pm

Fri Jul 31, 8:05pm

Fri Jul 31, 7:05pm

Fri Jul 31, 6:04pm

Fri Jul 31, 5:04pm

Fri Jul 31, 4:05pm

Fri Jul 31, 3:04pm

Fri Jul 31, 2:05pm

Fri Jul 31, 1:04pm

Fri Jul 31, 12:04pm

Meta data:

ID: f0341cdf-f924-46d7-96e0-d68a266cd26e
Link: https://api.weather.gov/products/f0341cdf-f924-46d7-96e0-d68a266cd26e